sat.trackr.live / text

‹ back to catalog

STARLINK-1226

NORAD 45229 · 2020-012BD

PAYLOAD ACTIVE UNKNOWN

§ Identity

Operator
Country
US
Launch date
2020-02-17
Launch site
AFETR
Launch vehicle
Mass (kg)
RCS (m²)

Purposes: comms

External: N2YO · Heavens-Above · Gunter

§ Orbital elements

Epoch: 2026-09-20T03:06:42.344928Z

Period
92.56 min
Inclination
53.1486°
Eccentricity
0.0002642
Mean motion
15.55716742 rev/d
Perigee alt
398.3 km
Apogee alt
401.9 km
Semi-major
6,778.2 km
B*
8.3881e-4
RAAN
155.4514°
Arg perigee
137.0968°
Mean anomaly
223.0250°
Rev number
36,546

§ Raw data

STARLINK-12261 45229U 20012BD  26263.12965677  .00058731  00000+0  83881-3 0  99932 45229  53.1486 155.4514 0002642 137.0968 223.0250 15.55716742365465

JSON: /api/v1/satellites/45229 · /tle

For live sub-satellite position, see the globe view (requires WebGL).

§ Visibility from observer

Set your observer location to see the next 7 days of passes ≥ 10°. The values pass through the URL so the page stays shareable.

No JS? Fill the form by hand. The geolocation button needs JavaScript.